Location: Clover
(42.5131°N, 114.6874°W)
Time: 15:41:53
(UTC+00:00)

ARIANE 6 FM1 Upper Stage - Pass Details

Date: 29 January 2026
Orbit: 522 x 608 km, 62.0° (Epoch: 17 February)

Event Time Altitude Azimuth Distance (km) Brightness Sun altitude
Rises 01:31:10 0° 244° (WSW) 2,708 8.3 -8.4°
Reaches altitude 10° 01:33:38 10° 256° (WSW) 1,804 7.0 -8.8°
Maximum altitude 01:37:10 28° 317° (NW) 1,015 4.3 -9.4°
Drops below altitude 10° 01:40:40 10° 18° (NNE) 1,780 4.9 -10.0°
Enters shadow 01:42:00 - 26° (NNE) 2,262 5.4 -10.3°
